W5YDW Weather Reports


time (UTC)temp
C
wind
direction
speed
KPH
gust
KPH
rain 1hr
cm
rain 24hr
cm
rain mn
cm
humidity
%
barometer
mb
20260906203106 39 158 9.7 22.5 0.00 0.00 0.00 31 1008.6
20260906201502 39 163 12.9 17.7 0.00 0.00 0.00 31 1008.8
20260906200109 39 153 8.0 16.1 0.00 0.00 0.00 32 1009.2
20260906194502 39 182 9.7 16.1 0.00 0.00 0.00 31 1009.4
20260906193003 38 225 9.7 16.1 0.00 0.00 0.00 31 1009.7
20260906191603 38 158 9.7 22.5 0.00 0.00 0.00 32 1009.9
20260906190003 37 137 9.7 17.7 0.00 0.00 0.00 35 1010.2
20260906184501 37 129 4.8 16.1 0.00 0.00 0.00 34 1010.4
20260906183004 38 119 6.4 12.9 0.00 0.00 0.00 33 1010.6
20260906181603 38 113 9.7 17.7 0.00 0.00 0.00 34 1010.8
20260906180002 37 109 0.0 3.2 0.00 0.00 0.00 37 1011.1
20260906174602 37 111 4.8 17.7 0.00 0.00 0.00 35 1011.4
20260906173113 37 113 11.3 17.7 0.00 0.00 0.00 35 1011.6
20260906171503 37 85 3.2 12.9 0.00 0.00 0.00 36 1011.9
20260906170111 37 72 3.2 12.9 0.00 0.00 0.00 37 1012.0
20260906164502 36 46 1.6 6.4 0.00 0.00 0.00 38 1012.2
20260906163002 35 40 1.6 6.4 0.00 0.00 0.00 40 1012.3
20260906161608 35 42 1.6 8.0 0.00 0.00 0.00 41 1012.3
20260906160002 35 61 3.2 9.7 0.00 0.00 0.00 41 1012.2
20260906154603 34 80 4.8 8.0 0.00 0.00 0.00 42 1012.3
20260906153103 33 99 0.0 6.4 0.00 0.00 0.00 45 1012.2
20260906151502 32 99 0.0 6.4 0.00 0.00 0.00 48 1012.3
20260906150105 31 128 3.2 6.4 0.00 0.00 0.00 50 1012.2
20260906144503 30 148 0.0 0.0 0.00 0.00 0.00 52 1012.2
20260906143010 29 148 0.0 0.0 0.00 0.00 0.00 57 1012.2
20260906141625 27 150 0.0 0.0 0.00 0.00 0.00 62 1012.1
20260906140002 26 150 0.0 0.0 0.00 0.00 0.00 70 1012.0
20260906134628 25 150 0.0 0.0 0.00 0.00 0.00 73 1012.0
20260906133106 24 150 0.0 0.0 0.00 0.00 0.00 76 1011.8
20260906131503 23 150 0.0 0.0 0.00 0.00 0.00 76 1011.7
20260906130148 23 151 0.0 0.0 0.00 0.00 0.00 79 1011.5
20260906124503 22 151 0.0 0.0 0.00 0.00 0.00 83 1011.2
20260906123003 21 151 0.0 0.0 0.00 0.00 0.00 82 1010.9
20260906121609 22 151 0.0 0.0 0.00 0.00 0.00 81 1010.8
20260906120006 22 151 0.0 0.0 0.00 0.00 0.00 81 1010.5
20260906114607 22 151 0.0 0.0 0.00 0.00 0.00 81 1010.4
20260906111504 22 151 0.0 0.0 0.00 0.00 0.00 79 1010.3
20260906104504 22 151 0.0 0.0 0.00 0.00 0.00 78 1010.2
20260906103002 22 151 0.0 0.0 0.00 0.00 0.00 78 1010.1
20260906101602 23 151 0.0 0.0 0.00 0.00 0.00 77 1010.0
20260906100007 23 151 0.0 0.0 0.00 0.00 0.00 77 1010.1
20260906094604 23 151 0.0 0.0 0.00 0.00 0.00 76 1009.9
20260906093103 23 151 0.0 0.0 0.00 0.00 0.00 76 1009.9
20260906091502 23 151 0.0 0.0 0.00 0.00 0.00 75 1009.9
20260906090003 23 151 0.0 0.0 0.00 0.00 0.00 75 1009.8
20260906084603 23 151 0.0 0.0 0.00 0.00 0.00 74 1009.7
20260906083103 23 151 0.0 0.0 0.00 0.00 0.00 73 1009.6
20260906081502 24 151 0.0 0.0 0.00 0.00 0.00 71 1009.7
20260906074503 24 151 0.0 0.0 0.00 0.00 0.00 69 1009.6
20260906073002 25 151 0.0 0.0 0.00 0.00 0.00 69 1009.6
20260906071604 25 151 0.0 0.0 0.00 0.00 0.00 68 1009.5
20260906070002 25 151 0.0 0.0 0.00 0.00 0.00 66 1009.5
20260906064602 25 151 0.0 0.0 0.00 0.00 0.00 65 1009.4
20260906063103 25 151 0.0 0.0 0.00 0.00 0.00 65 1009.5
20260906061503 26 151 0.0 0.0 0.00 0.00 0.00 64 1009.6
20260906060116 26 151 0.0 0.0 0.00 0.00 0.00 63 1009.6
20260906054509 26 151 1.6 3.2 0.00 0.00 0.00 63 1009.6
20260906053002 26 151 0.0 0.0 0.00 0.00 0.00 62 1009.6
20260906051609 26 151 0.0 0.0 0.00 0.00 0.00 62 1009.7
20260906050003 26 151 0.0 3.2 0.00 0.00 0.00 62 1009.6
20260906044603 27 151 0.0 0.0 0.00 0.00 0.00 59 1009.6
20260906043107 27 151 0.0 0.0 0.00 0.00 0.00 58 1009.5
20260906041504 27 151 1.6 4.8 0.00 0.00 0.00 57 1009.4
20260906040103 28 151 0.0 1.6 0.00 0.00 0.00 55 1009.7
20260906034502 28 151 0.0 3.2 0.00 0.00 0.00 52 1009.6
20260906033002 29 151 0.0 0.0 0.00 0.00 0.00 51 1009.4
20260906031604 30 151 0.0 0.0 0.00 0.00 0.00 50 1009.3
20260906030003 31 151 0.0 0.0 0.00 0.00 0.00 47 1009.0
20260906024603 31 151 0.0 8.0 0.00 0.00 0.00 46 1009.0
20260906023109 31 152 4.8 9.7 0.00 0.00 0.00 45 1008.8
20260906021503 32 148 4.8 8.0 0.00 0.00 0.00 44 1008.4
20260906014508 32 153 4.8 9.7 0.00 0.00 0.00 43 1008.1
20260906013007 32 148 1.6 8.0 0.00 0.00 0.00 43 1007.9
20260906011607 33 121 0.0 3.2 0.00 0.00 0.00 41 1007.8
20260906010003 34 120 0.0 1.6 0.00 0.00 0.00 39 1007.8
20260906004603 35 120 0.0 3.2 0.00 0.00 0.00 37 1007.9
20260906003102 36 146 4.8 14.5 0.00 0.00 0.00 36 1008.0
20260906001501 36 117 3.2 12.9 0.00 0.00 0.00 35 1008.1
20260906000106 36 111 4.8 17.7 0.00 0.00 0.00 33 1008.0
20260905234502 37 113 4.8 17.7 0.00 0.00 0.00 34 1007.8
20260905233003 37 142 9.7 17.7 0.00 0.00 0.00 33 1007.6
20260905231602 37 128 9.7 19.3 0.00 0.00 0.00 33 1007.5
20260905230005 37 130 6.4 19.3 0.00 0.00 0.00 33 1007.3
20260905224604 37 147 8.0 27.4 0.00 0.00 0.00 33 1007.2
20260905223103 37 155 11.3 22.5 0.00 0.00 0.00 33 1007.1
20260905221502 37 173 12.9 22.5 0.00 0.00 0.00 34 1007.2
20260905220103 37 117 6.4 24.1 0.00 0.00 0.00 33 1007.5
20260905214503 38 118 8.0 17.7 0.00 0.00 0.00 33 1007.4
20260905213006 38 111 9.7 20.9 0.00 0.00 0.00 33 1007.7
20260905211611 38 91 9.7 22.5 0.00 0.00 0.00 33 1007.9
20260905210004 38 144 8.0 19.3 0.00 0.00 0.00 34 1008.0